TimeCDT,TemperatureF,Dew PointF,Humidity,Sea Level PressureIn,VisibilityMPH,Wind Direction,Wind SpeedMPH,Gust SpeedMPH,PrecipitationIn,Events,Conditions,WindDirDegrees,DateUTC
12:12 AM,49.3,38.7,67,29.88,10.0,SSW,3.5,-,N/A,,Clear,200,2012-10-03 05:12:00
12:32 AM,47.1,38.3,71,29.88,7.0,SSW,4.6,-,N/A,,Clear,210,2012-10-03 05:32:00
12:52 AM,46.6,38.7,74,29.88,7.0,SSW,4.6,-,N/A,,Clear,200,2012-10-03 05:52:00
1:12 AM,48.2,39.2,71,29.88,7.0,SSW,4.6,-,N/A,,Clear,200,2012-10-03 06:12:00
1:32 AM,48.2,39.2,71,29.89,10.0,SSW,3.5,-,N/A,,Clear,200,2012-10-03 06:32:00
1:52 AM,46.0,38.7,75,29.89,10.0,SSW,3.5,-,N/A,,Clear,200,2012-10-03 06:52:00
2:12 AM,48.2,39.7,73,29.90,10.0,SSW,3.5,-,N/A,,Clear,200,2012-10-03 07:12:00
2:32 AM,48.4,40.3,74,29.90,10.0,SW,3.5,-,N/A,,Clear,220,2012-10-03 07:32:00
2:52 AM,48.4,40.5,74,29.90,10.0,Calm,Calm,-,N/A,,Clear,0,2012-10-03 07:52:00
3:12 AM,45.5,39.4,79,29.89,10.0,Calm,Calm,-,N/A,,Clear,0,2012-10-03 08:12:00
3:32 AM,44.6,38.8,80,29.89,10.0,Calm,Calm,-,N/A,,Clear,0,2012-10-03 08:32:00
3:52 AM,44.2,39.4,83,29.89,10.0,Calm,Calm,-,N/A,,Clear,0,2012-10-03 08:52:00
4:12 AM,43.7,39.0,84,29.90,10.0,Calm,Calm,-,N/A,,Clear,0,2012-10-03 09:12:00
4:32 AM,44.1,39.2,83,29.90,10.0,Calm,Calm,-,N/A,,Clear,0,2012-10-03 09:32:00
4:52 AM,43.3,39.2,85,29.90,10.0,Calm,Calm,-,N/A,,Clear,0,2012-10-03 09:52:00
5:12 AM,43.0,39.6,88,29.90,10.0,Calm,Calm,-,N/A,,Clear,0,2012-10-03 10:12:00
5:32 AM,43.2,40.5,90,29.90,10.0,Calm,Calm,-,N/A,,Clear,0,2012-10-03 10:32:00
5:52 AM,43.3,40.5,90,29.90,7.0,SSW,3.5,-,N/A,,Clear,210,2012-10-03 10:52:00
6:12 AM,41.2,37.9,88,29.91,7.0,Calm,Calm,-,N/A,,Clear,0,2012-10-03 11:12:00
6:32 AM,43.3,40.3,89,29.91,7.0,Calm,Calm,-,N/A,,Clear,0,2012-10-03 11:32:00
6:52 AM,46.4,43.0,88,29.91,10.0,South,3.5,-,N/A,,Clear,190,2012-10-03 11:52:00
7:12 AM,46.4,42.1,85,29.91,10.0,Calm,Calm,-,N/A,,Clear,0,2012-10-03 12:12:00
7:32 AM,43.5,38.8,84,29.91,7.0,Calm,Calm,-,N/A,,Clear,0,2012-10-03 12:32:00
7:52 AM,46.2,41.9,85,29.91,10.0,Calm,Calm,-,N/A,,Clear,0,2012-10-03 12:52:00
8:12 AM,48.7,44.2,84,29.91,7.0,SW,3.5,-,N/A,,Clear,220,2012-10-03 13:12:00
8:32 AM,52.2,45.9,79,29.91,10.0,Calm,Calm,-,N/A,,Clear,0,2012-10-03 13:32:00
8:52 AM,55.0,46.4,73,29.91,10.0,South,3.5,-,N/A,,Clear,190,2012-10-03 13:52:00
9:11 AM,57.7,46.6,66,29.91,10.0,South,3.5,-,N/A,,Clear,180,2012-10-03 14:11:00
9:32 AM,60.8,46.2,59,29.91,10.0,South,3.5,-,N/A,,Clear,180,2012-10-03 14:32:00
9:52 AM,63.5,45.7,52,29.91,10.0,South,5.8,-,N/A,,Clear,180,2012-10-03 14:52:00
10:12 AM,66.4,45.7,47,29.91,10.0,SSE,5.8,-,N/A,,Clear,160,2012-10-03 15:12:00
10:32 AM,67.5,45.1,45,29.91,10.0,South,4.6,-,N/A,,Clear,190,2012-10-03 15:32:00
10:52 AM,70.0,44.1,39,29.91,10.0,SSW,5.8,-,N/A,,Clear,210,2012-10-03 15:52:00
11:12 AM,71.8,43.2,36,29.91,10.0,South,8.1,-,N/A,,Clear,170,2012-10-03 16:12:00
11:32 AM,72.9,41.5,32,29.90,10.0,South,3.5,-,N/A,,Clear,180,2012-10-03 16:32:00
11:52 AM,74.1,40.1,29,29.90,10.0,South,6.9,-,N/A,,Clear,190,2012-10-03 16:52:00
12:12 PM,74.7,39.4,28,29.90,10.0,SW,8.1,-,N/A,,Clear,220,2012-10-03 17:12:00
12:32 PM,75.6,39.4,27,29.89,10.0,South,8.1,-,N/A,,Clear,170,2012-10-03 17:32:00
12:52 PM,75.4,39.2,27,29.88,10.0,South,6.9,16.1,N/A,,Clear,170,2012-10-03 17:52:00
1:12 PM,76.1,37.9,25,29.88,10.0,SSE,9.2,-,N/A,,Clear,160,2012-10-03 18:12:00
1:32 PM,76.6,38.3,25,29.86,10.0,South,6.9,-,N/A,,Clear,190,2012-10-03 18:32:00
1:52 PM,77.0,37.6,24,29.86,10.0,SSW,8.1,-,N/A,,Clear,210,2012-10-03 18:52:00
2:12 PM,77.2,37.6,24,29.85,10.0,SSE,8.1,-,N/A,,Clear,160,2012-10-03 19:12:00
2:32 PM,77.7,37.2,23,29.84,10.0,South,6.9,16.1,N/A,,Clear,180,2012-10-03 19:32:00
2:52 PM,78.1,37.2,23,29.84,10.0,South,6.9,-,N/A,,Clear,190,2012-10-03 19:52:00
3:12 PM,77.9,36.9,23,29.83,10.0,South,8.1,-,N/A,,Clear,180,2012-10-03 20:12:00
3:32 PM,77.7,36.7,23,29.83,10.0,SSE,8.1,-,N/A,,Clear,150,2012-10-03 20:32:00
3:52 PM,78.3,36.5,22,29.83,10.0,South,6.9,-,N/A,,Clear,170,2012-10-03 20:52:00
4:12 PM,77.9,36.3,22,29.83,10.0,SSE,6.9,-,N/A,,Clear,150,2012-10-03 21:12:00
4:32 PM,77.7,37.2,23,29.83,10.0,South,10.4,19.6,N/A,,Clear,170,2012-10-03 21:32:00
4:52 PM,77.4,37.2,23,29.83,10.0,South,9.2,16.1,N/A,,Clear,170,2012-10-03 21:52:00
5:12 PM,77.2,37.2,24,29.83,10.0,SSE,11.5,16.1,N/A,,Clear,160,2012-10-03 22:12:00
5:32 PM,76.6,37.4,24,29.83,10.0,SSE,6.9,-,N/A,,Clear,160,2012-10-03 22:32:00
5:52 PM,76.1,37.0,24,29.83,10.0,SSE,9.2,-,N/A,,Clear,150,2012-10-03 22:52:00
6:12 PM,75.2,37.4,25,29.84,10.0,SSE,8.1,-,N/A,,Clear,150,2012-10-03 23:12:00
6:32 PM,72.9,37.9,28,29.84,10.0,SE,4.6,-,N/A,,Clear,140,2012-10-03 23:32:00
6:52 PM,71.2,38.3,30,29.85,10.0,SE,5.8,-,N/A,,Clear,140,2012-10-03 23:52:00
7:12 PM,70.5,38.5,31,29.85,10.0,SE,4.6,-,N/A,,Clear,140,2012-10-04 00:12:00
7:32 PM,69.3,39.0,33,29.86,10.0,SE,5.8,-,N/A,,Clear,140,2012-10-04 00:32:00
7:52 PM,68.9,39.6,34,29.86,10.0,SE,5.8,-,N/A,,Clear,130,2012-10-04 00:52:00
8:12 PM,68.9,39.7,35,29.86,10.0,SE,6.9,-,N/A,,Clear,130,2012-10-04 01:12:00
8:32 PM,68.0,40.6,37,29.86,10.0,SE,8.1,-,N/A,,Clear,140,2012-10-04 01:32:00
8:52 PM,68.0,41.2,38,29.86,10.0,SE,8.1,-,N/A,,Clear,140,2012-10-04 01:52:00
9:12 PM,67.6,41.7,39,29.86,10.0,SE,6.9,-,N/A,,Clear,140,2012-10-04 02:12:00
9:32 PM,67.1,41.9,40,29.86,10.0,SE,6.9,-,N/A,,Clear,140,2012-10-04 02:32:00
9:52 PM,66.7,41.9,40,29.86,10.0,SSE,6.9,-,N/A,,Clear,150,2012-10-04 02:52:00
10:12 PM,66.2,41.9,41,29.86,10.0,SSE,6.9,-,N/A,,Clear,150,2012-10-04 03:12:00
10:32 PM,65.5,41.9,42,29.86,10.0,SSE,6.9,-,N/A,,Clear,160,2012-10-04 03:32:00
10:52 PM,66.2,41.5,41,29.86,10.0,SSE,6.9,-,N/A,,Clear,150,2012-10-04 03:52:00
11:12 PM,65.5,41.5,42,29.86,10.0,SSE,8.1,-,N/A,,Clear,150,2012-10-04 04:12:00
11:32 PM,65.5,41.5,42,29.86,10.0,SSE,8.1,16.1,N/A,,Clear,150,2012-10-04 04:32:00
11:52 PM,64.6,41.7,43,29.85,10.0,SSE,13.8,17.3,N/A,,Clear,150,2012-10-04 04:52:00